Location: Unspecified
(0.0000°N, 0.0000°E)
Time: 11:42:50
(UTC+00:00)

deb r/b Ablestar - Pass Details

Date: 12 April 2026
Orbit: 834 x 1371 km, 65.9° (Epoch: 10 May)

Event Time Altitude Azimuth Distance (km) Brightness Sun altitude
Rises 04:24:37 0° 170° (S) 3,810 ? -23.8°
Reaches altitude 10° 04:27:57 10° 153° (SSE) 2,952 ? -23.0°
Maximum altitude 04:32:54 20° 108° (ESE) 2,406 ? -21.7°
Drops below altitude 10° 04:38:14 10° 64° (ENE) 3,218 ? -20.4°
Sets 04:42:01 0° 49° (NE) 4,264 ? -19.5°
